Location: Peebles
(55.6412°N, 3.1714°W)
Time: 21:21:58
(UTC+00:00)

FENGYUN 1C DEB - Pass Details

Date: 12 February 2023
Orbit: 707 x 862 km, 98.5° (Epoch: 07 November)

Event Time Altitude Azimuth Distance (km) Brightness Sun altitude
Rises 19:39:11 0° 172° (S) 3,401 ? -21.3°
Reaches altitude 10° 19:41:35 10° 175° (S) 2,472 ? -21.7°
Maximum altitude 19:47:04 65° 257° (WSW) 930 ? -22.4°
Drops below altitude 10° 19:52:32 10° 340° (NNW) 2,462 ? -23.2°
Sets 19:54:54 0° 343° (NNW) 3,387 ? -23.5°
